User: anonymous   Login
Location: Wilsall
(45.9940°N, 110.6590°W)
Time: 00:59:36
(UTC-06:00)
Language:

GP-B - Orbit

View from above orbital plane
View from above orbital plane
View from above satellite
View from above satellite

Ground track
Ground track

The orbit data is extracted from the following two-line orbital elements,

1 28230U 04014A   15184.39870946  .00000300  00000-0  39159-4 0  9993
2 28230 089.8760 134.4335 0002522 103.6544 256.4959 14.78181887603497
Epoch (UTC): 03 July 2015 09:34:08
Eccentricity: 0.0002522
inclination: 89.8760°
perigee height: 633 km
apogee height: 637 km
right ascension of ascending node: 134.4335°
argument of perigee: 103.6544°
revolutions per day: 14.78181887
mean anomaly at epoch: 256.4959°
orbit number at epoch: 60349

The dashed part of the orbit path shows where the satellite is in the earth's shadow,  

DLR